Date,TemperatureHighF,TemperatureAvgF,TemperatureLowF,DewpointHighF,DewpointAvgF,DewpointLowF,HumidityHigh,HumidityAvg,HumidityLow,PressureMaxIn,PressureMinIn,WindSpeedMaxMPH,WindSpeedAvgMPH,GustSpeedMaxMPH,PrecipitationSumIn
2013-1-1,32.0,24.7,16.0,32.0,17.9,11.0,99,75,58,0.00,40.00,11,4,20,0.00
2013-1-2,26.0,19.8,13.0,19.0,16.6,12.0,96,87,77,0.00,40.00,9,4,12,0.00
2013-1-3,30.0,22.9,14.0,28.0,18.2,9.0,94,82,69,0.00,40.00,12,6,19,0.00
2013-1-4,29.0,25.9,21.0,26.0,20.9,16.0,92,81,68,0.00,40.00,17,10,27,0.00
2013-1-5,35.0,28.3,21.0,33.0,25.9,21.0,99,90,74,0.00,40.00,12,6,21,0.00
2013-1-6,37.0,34.1,31.0,35.0,32.6,29.0,99,94,82,0.00,40.00,14,7,23,0.00
2013-1-7,36.0,32.1,29.0,31.0,28.4,26.0,93,86,73,0.00,40.00,15,6,24,0.00
2013-1-8,39.0,32.1,26.0,32.0,28.3,25.0,96,86,68,0.00,40.00,10,5,17,0.00
2013-1-9,48.0,40.6,32.0,38.0,32.9,26.0,97,75,51,0.00,40.00,16,8,28,0.00
2013-1-10,42.0,35.0,28.0,37.0,32.0,27.0,99,89,68,0.00,40.00,9,3,12,0.00
2013-1-11,60.0,47.9,36.0,57.0,46.8,36.0,100,95,80,0.00,40.00,17,6,27,0.00
2013-1-12,60.0,53.9,49.0,57.0,52.7,48.0,100,95,90,0.00,40.00,11,6,19,0.00
2013-1-13,53.0,42.3,34.0,53.0,42.3,33.0,100,99,99,0.00,40.00,16,6,24,0.00
2013-1-14,33.0,26.7,24.0,33.0,22.5,19.0,100,84,72,0.00,40.00,16,6,24,0.00
2013-1-15,32.0,25.8,20.0,26.0,21.0,19.0,98,82,59,0.00,40.00,7,2,11,0.00
2013-1-16,38.0,31.2,25.0,29.0,24.1,20.0,96,76,48,0.00,40.00,14,6,22,0.00
2013-1-17,41.0,33.2,21.0,34.0,25.2,11.0,96,73,48,0.00,40.00,14,6,22,0.00
2013-1-18,37.0,29.1,21.0,26.0,20.1,11.0,86,69,59,0.00,40.00,22,8,35,0.00
2013-1-19,50.0,42.9,37.0,38.0,30.9,26.0,75,62,52,0.00,40.00,17,12,29,0.00
2013-1-20,45.0,26.6,20.0,38.0,16.6,10.0,78,65,51,0.00,40.00,27,13,40,0.00
2013-1-21,21.0,17.2,10.0,14.0,9.5,4.0,81,71,61,0.00,40.00,17,9,29,0.00
2013-1-22,12.0,7.5,2.0,8.0,2.8,-1.0,89,80,72,0.00,40.00,12,6,22,0.00
2013-1-23,19.0,13.2,7.0,15.0,7.2,1.0,92,77,58,0.00,40.00,10,5,16,0.00
2013-1-24,26.0,16.4,9.0,16.0,9.3,3.0,97,75,45,0.00,40.00,12,5,17,0.00
2013-1-25,22.0,19.6,17.0,22.0,16.2,11.0,99,86,75,0.00,40.00,9,5,17,0.00
2013-1-26,28.0,24.5,21.0,24.0,20.0,14.0,100,84,60,0.00,40.00,11,4,16,0.00
2013-1-27,32.0,25.2,17.0,31.0,20.7,14.0,95,83,73,0.00,40.00,11,4,16,0.00
2013-1-28,50.0,43.0,32.0,50.0,42.8,30.0,100,99,92,0.00,40.00,12,7,21,0.00
2013-1-29,59.0,50.6,37.0,58.0,50.2,37.0,100,98,96,0.00,40.00,15,7,24,0.00
2013-1-30,63.0,52.8,34.0,61.0,51.9,31.0,100,96,89,0.00,40.00,24,12,36,0.00
2013-1-31,34.0,22.7,17.0,31.0,15.1,10.0,89,72,57,0.00,40.00,22,13,36,0.00
2013-2-1,20.0,15.5,13.0,13.0,9.1,6.0,87,75,61,0.00,40.00,16,10,26,0.00
2013-2-2,25.0,19.5,15.0,23.0,17.1,8.0,98,90,74,0.00,40.00,11,7,19,0.00
2013-2-3,24.0,16.9,8.0,19.0,13.6,7.0,96,86,69,0.00,40.00,12,5,21,0.00
2013-2-4,26.0,22.0,19.0,25.0,20.8,17.0,100,95,85,0.00,40.00,9,4,13,0.00
2013-2-5,29.0,24.5,20.0,29.0,23.0,20.0,100,94,75,0.00,40.00,9,4,15,0.00
2013-2-6,36.0,27.6,18.0,29.0,18.1,13.0,100,68,45,0.00,40.00,9,4,17,0.00
2013-2-7,45.0,32.0,25.0,33.0,26.9,19.0,99,81,56,0.00,40.00,13,5,20,0.00
2013-2-8,33.0,29.1,22.0,33.0,27.0,19.0,100,91,79,0.00,40.00,20,8,29,0.00
2013-2-9,34.0,25.1,15.0,26.0,20.3,15.0,97,82,59,0.00,40.00,7,3,11,0.00
2013-2-10,46.0,34.9,22.0,43.0,28.9,22.0,97,80,54,0.00,40.00,15,5,22,0.00
2013-2-11,47.0,39.8,33.0,47.0,34.2,26.0,99,80,67,0.00,40.00,24,13,42,0.00
2013-2-12,37.0,33.1,30.0,29.0,26.7,25.0,84,77,68,0.00,40.00,13,7,25,0.00
2013-2-13,39.0,31.7,27.0,30.0,27.0,25.0,95,83,64,0.00,40.00,7,4,11,0.00
2013-2-14,43.0,36.5,30.0,40.0,33.5,27.0,98,89,67,0.00,40.00,20,9,29,0.00
2013-2-15,36.0,30.8,26.0,29.0,22.7,16.0,88,72,54,0.00,40.00,12,6,19,0.00
2013-2-16,28.0,23.5,18.0,25.0,18.4,12.0,90,80,65,0.00,40.00,12,5,20,0.00
2013-2-17,27.0,20.2,14.0,15.0,11.7,8.0,97,72,46,0.00,40.00,12,5,20,0.00
2013-2-18,49.0,34.6,20.0,37.0,23.8,11.0,77,65,50,0.00,40.00,17,9,26,0.00
2013-2-19,47.0,29.2,18.0,44.0,25.6,12.0,99,86,65,0.00,40.00,22,14,34,0.00
2013-2-20,24.0,21.1,18.0,18.0,14.8,11.0,92,76,62,0.00,40.00,16,9,25,0.00
2013-2-21,26.0,23.6,22.0,20.0,19.0,17.0,87,82,76,0.00,40.00,12,6,17,0.00
2013-2-22,36.0,29.6,23.0,36.0,28.9,20.0,100,97,88,0.00,40.00,14,7,24,0.00
2013-2-23,35.0,31.5,29.0,35.0,26.0,21.0,98,80,62,0.00,40.00,13,7,19,0.00
2013-2-24,38.0,31.0,25.0,29.0,25.7,21.0,88,80,65,0.00,40.00,12,6,20,0.00
2013-2-25,41.0,32.2,24.0,36.0,27.4,24.0,100,83,54,0.00,40.00,11,4,17,0.00
2013-2-26,34.0,32.1,31.0,33.0,31.0,28.0,100,95,88,0.00,40.00,17,11,29,0.00
2013-2-27,36.0,34.4,33.0,36.0,34.4,33.0,100,99,99,0.00,40.00,9,6,17,0.00
2013-2-28,39.0,34.7,32.0,38.0,33.2,30.0,100,94,78,0.00,40.00,12,6,21,0.00
2013-3-1,32.0,29.3,27.0,32.0,25.8,23.0,98,86,78,0.00,40.00,12,7,18,0.00
2013-3-2,29.0,27.0,26.0,25.0,23.0,20.0,92,84,78,0.00,40.00,9,6,16,0.00
2013-3-3,31.0,26.0,23.0,21.0,18.6,14.0,88,74,53,0.00,40.00,11,5,17,0.00
2013-3-4,39.0,28.3,19.0,24.0,20.2,18.0,96,73,43,0.00,40.00,6,3,9,0.00
2013-3-5,32.0,28.9,26.0,29.0,26.7,23.0,97,91,76,0.00,40.00,17,10,29,0.00
2013-3-6,40.0,34.2,29.0,33.0,30.2,27.0,96,85,73,0.00,40.00,16,6,27,0.00
2013-3-7,39.0,35.5,32.0,35.0,30.5,23.0,95,82,63,0.00,40.00,9,4,14,0.00
2013-3-8,46.0,35.1,26.0,31.0,26.3,23.0,90,71,48,0.00,40.00,7,3,11,0.00
2013-3-9,48.0,37.9,30.0,36.0,32.2,29.0,96,81,52,0.00,40.00,9,4,15,0.00
2013-3-10,62.0,55.1,46.0,42.0,39.7,38.0,77,57,45,0.00,40.00,13,8,21,0.00
2013-3-11,57.0,51.0,39.0,53.0,47.7,36.0,98,88,57,0.00,40.00,19,12,31,0.00
2013-3-12,39.0,35.4,33.0,36.0,31.9,28.0,94,86,74,0.00,40.00,14,8,24,0.00
2013-3-13,34.0,30.5,27.0,31.0,24.1,19.0,96,77,61,0.00,40.00,17,9,29,0.00
2013-3-14,42.0,32.8,24.0,24.0,21.8,18.0,85,65,45,0.00,40.00,13,6,21,0.00
2013-3-15,45.0,37.9,33.0,41.0,33.6,22.0,100,85,63,0.00,40.00,10,6,19,0.00
2013-3-16,37.0,32.4,30.0,37.0,32.3,29.0,100,99,92,0.00,40.00,13,7,20,0.00
2013-3-17,32.0,29.4,26.0,29.0,23.2,18.0,92,77,56,0.00,40.00,13,7,22,0.00
2013-3-18,39.0,33.8,29.0,39.0,32.4,24.0,100,94,82,0.00,40.00,14,8,25,0.00
2013-3-19,36.0,29.7,24.0,36.0,20.8,16.0,100,70,50,0.00,40.00,20,12,34,0.00
2013-3-20,30.0,27.1,20.0,22.0,16.6,12.0,83,64,52,0.00,40.00,14,8,24,0.00
2013-3-21,33.0,25.1,17.0,26.0,20.3,14.0,94,82,63,0.00,40.00,14,8,22,0.00
2013-3-22,43.0,33.2,27.0,26.0,22.4,21.0,78,65,45,0.00,40.00,12,7,19,0.00
2013-3-23,42.0,33.0,25.0,31.0,26.2,24.0,96,77,49,0.00,40.00,9,3,14,0.00
2013-3-24,36.0,32.5,28.0,32.0,29.0,25.0,96,87,67,0.00,40.00,19,10,29,0.00
2013-3-25,38.0,34.1,31.0,37.0,32.1,28.0,100,92,78,0.00,40.00,17,10,29,0.00
2013-3-26,44.0,37.8,34.0,37.0,32.5,30.0,92,81,60,0.00,40.00,11,6,21,0.00
2013-3-27,46.0,39.4,32.0,34.0,28.9,24.0,96,69,43,0.00,40.00,16,8,24,0.00
2013-3-28,53.0,42.1,31.0,31.0,27.5,25.0,81,58,39,0.00,40.00,12,6,19,0.00
2013-3-29,53.0,43.2,32.0,28.0,25.9,21.0,80,53,31,0.00,40.00,10,4,16,0.00
2013-3-30,57.0,45.2,31.0,34.0,28.3,24.0,85,54,31,0.00,40.00,12,4,18,0.00
2013-3-31,61.0,50.1,44.0,50.0,36.5,-99.9,96,64,36,0.00,40.00,16,7,24,0.00
2013-4-1,49.0,36.8,29.0,38.0,21.5,13.0,87,56,34,0.00,40.00,16,9,25,0.00
2013-4-2,43.0,33.5,25.0,24.0,17.1,14.0,83,53,33,0.00,40.00,14,6,23,0.00
2013-4-3,46.0,34.8,26.0,25.0,17.6,13.0,76,51,31,0.00,40.00,16,5,24,0.00
2013-4-4,58.0,41.8,28.0,23.0,18.5,16.0,71,42,20,0.00,40.00,11,5,16,0.00
2013-4-5,53.0,44.6,37.0,39.0,27.1,19.0,93,53,27,0.00,40.00,12,6,21,0.00
2013-4-6,57.0,45.4,35.0,31.0,25.0,18.0,81,47,29,0.00,40.00,16,8,22,0.00
2013-4-7,63.0,57.8,49.0,51.0,41.6,25.0,77,56,30,0.00,40.00,18,11,34,0.00
2013-4-8,72.0,54.8,42.0,61.0,48.5,38.0,94,80,56,0.00,40.00,17,7,32,0.00
2013-4-9,56.0,49.3,46.0,49.0,47.0,45.0,99,91,78,0.00,40.00,11,5,16,0.00
2013-4-10,50.0,45.9,43.0,50.0,45.9,43.0,100,99,99,0.00,40.00,15,7,23,0.00
2013-4-11,43.0,39.9,38.0,43.0,39.8,38.0,100,99,99,0.00,40.00,19,13,35,0.00
2013-4-12,43.0,40.6,39.0,41.0,38.4,34.0,100,92,74,0.00,40.00,16,8,25,0.00
2013-4-13,43.0,40.8,39.0,40.0,35.3,30.0,94,81,63,0.00,40.00,17,8,29,0.00
2013-4-14,49.0,42.5,37.0,41.0,37.8,33.0,96,83,70,0.00,40.00,13,5,19,0.00
2013-4-15,70.0,56.8,40.0,56.0,48.9,40.0,99,77,55,0.00,40.00,21,8,29,0.00
2013-4-16,63.0,56.4,51.0,58.0,52.2,43.0,100,86,56,0.00,40.00,10,4,16,0.00
2013-4-17,53.0,48.8,45.0,48.0,39.3,35.0,89,70,54,0.00,40.00,17,10,26,0.00
2013-4-18,81.0,61.9,46.0,68.0,57.9,44.0,98,88,56,0.00,40.00,28,10,42,0.00
2013-4-19,65.0,47.1,38.0,62.0,43.1,31.0,99,85,64,0.00,40.00,21,11,41,0.00
2013-4-20,44.0,37.7,32.0,34.0,26.7,21.0,96,66,43,0.00,40.00,17,9,29,0.00
2013-4-21,46.0,38.2,29.0,34.0,29.2,21.0,86,70,56,0.00,40.00,12,5,19,0.00
2013-4-22,59.0,47.7,37.0,42.0,35.8,28.0,96,67,32,0.00,40.00,12,5,16,0.00
2013-4-23,73.0,57.9,46.0,59.0,45.0,35.0,99,66,35,0.00,40.00,17,7,27,0.00
2013-4-24,59.0,44.2,37.0,58.0,42.4,30.0,100,93,68,0.00,40.00,14,7,21,0.00
2013-4-25,53.0,43.6,36.0,44.0,34.7,30.0,92,72,44,0.00,40.00,19,7,27,0.00
2013-4-26,61.0,48.2,33.0,40.0,34.4,33.0,97,63,36,0.00,40.00,11,4,18,0.00
2013-4-27,68.0,54.6,40.0,46.0,39.5,35.0,98,61,29,0.00,40.00,10,4,15,0.00
2013-4-28,59.0,54.9,52.0,59.0,51.9,-99.9,100,93,65,0.00,40.00,8,3,13,0.00
2013-4-29,72.0,61.5,55.0,60.0,56.6,55.0,100,85,55,0.00,40.00,9,4,14,0.00
2013-4-30,76.0,65.4,55.0,60.0,57.3,54.0,98,77,51,0.00,40.00,14,7,22,0.00
2013-5-1,84.0,69.3,60.0,62.0,59.1,57.0,92,72,41,0.00,40.00,10,5,14,0.00
2013-5-2,82.0,65.9,55.0,57.0,53.6,46.0,98,68,37,0.00,40.00,13,6,21,0.00
2013-5-3,81.0,67.6,59.0,60.0,53.6,45.0,92,63,35,0.00,40.00,14,6,21,0.00
2013-5-4,68.0,62.9,58.0,53.0,48.7,40.0,77,60,36,0.00,40.00,14,7,24,0.00
2013-5-5,69.0,61.3,55.0,52.0,49.9,47.0,82,67,48,0.00,40.00,16,7,23,0.00
2013-5-6,69.0,60.8,53.0,55.0,50.7,45.0,95,70,52,0.00,40.00,11,5,17,0.00
2013-5-7,73.0,63.1,53.0,61.0,55.0,49.0,94,75,58,0.00,40.00,13,5,19,0.00
2013-5-8,80.0,67.5,58.0,57.0,53.8,49.0,93,63,39,0.00,40.00,9,3,14,0.00
2013-5-9,84.0,71.3,58.0,60.0,54.6,48.0,96,60,32,0.00,40.00,8,3,16,0.00
2013-5-10,73.0,63.6,47.0,66.0,57.9,-99.9,99,86,57,0.00,40.00,13,7,22,0.00
2013-5-11,60.0,49.6,43.0,51.0,46.1,37.0,97,88,67,0.00,40.00,16,6,28,0.00
2013-5-12,51.0,43.8,39.0,38.0,31.6,-99.9,93,66,42,0.00,40.00,20,8,29,0.00
2013-5-13,59.0,46.3,34.0,34.0,27.1,23.0,89,52,26,0.00,40.00,11,4,19,0.00
2013-5-14,81.0,62.5,46.0,62.0,44.9,29.0,71,54,39,0.00,40.00,19,7,28,0.00
2013-5-15,88.0,77.5,70.0,66.0,57.5,48.0,84,54,26,0.00,40.00,15,8,28,0.00
2013-5-16,86.0,67.8,57.0,58.0,30.4,-99.9,82,49,27,0.00,40.00,13,4,21,0.00
2013-5-17,69.0,61.1,56.0,55.0,46.7,-99.9,90,68,49,0.00,40.00,15,9,23,0.00
2013-5-18,75.0,63.9,58.0,59.0,55.1,51.0,94,74,49,0.00,40.00,11,7,17,0.00
2013-5-19,85.0,72.1,59.0,70.0,63.9,56.0,97,77,53,0.00,40.00,11,4,14,0.00
2013-5-20,92.0,80.4,69.0,75.0,68.8,65.0,96,71,43,0.00,40.00,16,7,25,0.00
2013-5-21,88.0,80.6,74.0,72.0,66.3,61.0,92,64,40,0.00,40.00,16,8,25,0.00
2013-5-22,83.0,73.8,66.0,72.0,67.1,61.0,98,80,49,0.00,40.00,18,7,29,0.00
2013-5-23,70.0,59.0,45.0,65.0,57.7,44.0,99,95,77,0.00,40.00,17,7,27,0.00
2013-5-24,59.0,50.2,43.0,45.0,39.9,36.0,99,70,43,0.00,40.00,12,6,19,0.00
2013-5-25,68.0,55.5,41.0,49.0,41.0,35.0,98,64,31,0.00,40.00,9,2,15,0.00
2013-5-26,70.0,59.3,44.0,45.0,37.6,31.0,92,50,24,0.00,40.00,10,3,12,0.00
2013-5-27,61.0,55.8,54.0,56.0,46.9,37.0,100,75,40,0.00,40.00,11,4,19,0.00
2013-5-28,81.0,68.4,56.0,74.0,65.5,56.0,100,91,75,0.00,40.00,21,5,31,0.00
2013-5-29,86.0,78.3,72.0,71.0,67.6,65.0,83,70,53,0.00,40.00,13,7,26,0.00
2013-5-30,90.0,78.0,70.0,75.0,69.8,66.0,98,77,48,0.00,40.00,22,6,36,0.00
2013-5-31,83.0,75.8,72.0,73.0,70.7,68.0,97,85,63,0.00,40.00,16,8,29,0.00
2013-6-1,80.0,71.7,65.0,72.0,67.9,65.0,100,88,66,0.00,40.00,15,7,24,0.00
2013-6-2,72.0,67.2,58.0,69.0,62.2,-99.9,99,87,67,0.00,40.00,15,7,21,0.00
2013-6-3,70.0,60.2,49.0,54.0,45.5,39.0,89,62,36,0.00,40.00,11,4,15,0.00
2013-6-4,71.0,62.1,52.0,57.0,51.2,48.0,93,69,47,0.00,40.00,9,4,15,0.00
2013-6-5,73.0,64.5,55.0,58.0,52.8,47.0,88,67,41,0.00,40.00,12,6,20,0.00
2013-6-6,71.0,63.5,58.0,60.0,56.1,50.0,90,77,68,0.00,40.00,11,7,19,0.00
2013-6-7,64.0,59.3,55.0,59.0,56.7,54.0,96,91,82,0.00,40.00,7,4,11,0.00
2013-6-8,77.0,65.7,58.0,61.0,58.4,56.0,96,78,53,0.00,40.00,9,3,16,0.00
2013-6-9,77.0,68.3,62.0,69.0,63.9,59.0,98,86,69,0.00,40.00,13,5,21,0.00
2013-6-10,74.0,68.5,66.0,72.0,68.0,66.0,100,98,92,0.00,40.00,11,2,19,0.00
2013-6-11,84.0,73.9,66.0,71.0,68.3,66.0,99,84,59,0.00,40.00,10,5,17,0.00
2013-6-12,84.0,73.7,67.0,74.0,70.0,67.0,98,88,64,0.00,40.00,11,3,15,0.00
2013-6-13,79.0,70.5,62.0,69.0,63.0,56.0,100,79,48,0.00,40.00,12,6,24,0.00
2013-6-14,79.0,70.1,61.0,65.0,61.5,59.0,97,76,53,0.00,40.00,11,4,18,0.00
2013-6-15,82.0,70.4,61.0,70.0,63.5,59.0,95,80,48,0.00,40.00,9,4,17,0.00
2013-6-16,83.0,74.6,67.0,72.0,68.6,65.0,99,83,58,0.00,40.00,12,7,19,0.00
2013-6-17,87.0,76.8,64.0,75.0,66.5,61.0,97,74,43,0.00,40.00,9,4,15,0.00
2013-6-18,75.0,68.7,62.0,69.0,63.1,51.0,98,83,64,0.00,40.00,14,7,21,0.00
2013-6-19,75.0,65.9,54.0,63.0,53.1,46.0,85,64,43,0.00,40.00,9,5,16,0.00
2013-6-20,84.0,69.2,58.0,61.0,56.7,53.0,91,67,37,0.00,40.00,9,4,14,0.00
2013-6-22,92.0,81.8,72.0,79.0,75.1,71.0,98,81,62,0.00,40.00,14,7,25,0.00
2013-6-23,91.0,80.1,73.0,76.0,72.6,69.0,98,80,51,0.00,40.00,13,5,27,0.00
2013-6-24,89.0,78.9,71.0,76.0,72.8,70.0,96,82,62,0.00,40.00,12,5,17,0.00
2013-6-25,91.0,79.7,70.0,80.0,75.0,69.0,98,86,62,0.00,40.00,11,6,21,0.00
2013-6-26,85.0,73.8,68.0,78.0,71.8,68.0,99,93,67,0.00,40.00,10,4,19,0.00
2013-6-27,83.0,74.6,69.0,77.0,73.1,69.0,99,94,78,0.00,40.00,14,3,24,0.00
2013-6-28,82.0,69.4,65.0,72.0,67.4,64.0,99,93,59,0.00,40.00,13,4,21,0.00
2013-6-29,77.0,69.0,62.0,70.0,66.8,62.0,100,92,76,0.00,40.00,11,4,16,0.00
2013-6-30,77.0,69.9,65.0,67.0,64.9,62.0,98,84,67,0.00,40.00,15,7,21,0.00
2013-7-1,70.0,64.1,62.0,65.0,61.6,57.0,100,91,79,0.00,40.00,15,7,25,0.00
2013-7-2,71.0,66.0,62.0,70.0,65.5,62.0,99,98,94,0.00,40.00,11,6,19,0.00
2013-7-3,84.0,74.2,67.0,73.0,69.2,67.0,99,86,59,0.00,40.00,9,4,15,0.00
2013-7-4,83.0,75.9,71.0,74.0,72.3,70.0,98,89,65,0.00,40.00,12,4,18,0.00
2013-7-5,84.0,75.0,70.0,76.0,72.3,70.0,99,91,67,0.00,40.00,6,3,9,0.00
2013-7-6,81.0,74.3,71.0,77.0,73.3,71.0,100,96,84,0.00,40.00,7,3,12,0.00
2013-7-7,80.0,72.3,68.0,74.0,70.8,68.0,100,95,77,0.00,40.00,8,4,18,0.00
2013-7-8,84.0,72.8,68.0,80.0,70.5,-99.9,98,95,82,0.00,40.00,9,4,14,0.00
2013-7-9,89.0,76.8,72.0,82.0,75.3,72.0,100,95,75,0.00,40.00,11,5,17,0.00
2013-7-10,87.0,75.9,69.0,82.0,70.8,-99.9,98,89,66,0.00,40.00,10,6,26,0.00
2013-7-11,81.0,72.4,66.0,68.0,62.4,58.0,94,73,47,0.00,40.00,9,4,16,0.00
2013-7-12,81.0,72.2,60.0,70.0,64.9,60.0,98,79,53,0.00,40.00,11,5,17,0.00
2013-7-13,82.0,76.6,67.0,74.0,70.7,66.0,98,82,65,0.00,40.00,12,6,18,0.00
2013-7-14,89.0,80.3,71.0,79.0,75.1,71.0,98,85,65,0.00,40.00,11,4,17,0.00
2013-7-15,93.0,82.5,77.0,82.0,77.6,76.0,96,86,61,0.00,40.00,7,2,14,0.00
2013-7-16,92.0,85.4,80.0,82.0,79.7,78.0,97,84,65,0.00,40.00,8,2,12,0.00
2013-7-17,95.0,85.3,78.0,83.0,79.5,76.0,95,83,62,0.00,40.00,11,3,17,0.00
2013-7-18,95.0,86.7,77.0,82.0,79.1,76.0,98,79,59,0.00,40.00,9,4,14,0.00
2013-7-19,94.0,87.0,78.0,82.0,79.0,76.0,96,78,58,0.00,40.00,16,8,27,0.00
2013-7-20,87.0,78.9,71.0,80.0,72.0,-99.9,100,82,53,0.00,40.00,12,5,25,0.00
2013-7-21,85.0,76.6,69.0,72.0,68.5,65.0,97,77,54,0.00,40.00,10,5,12,0.00
2013-7-22,81.0,74.9,72.0,76.0,71.2,68.0,96,88,77,0.00,40.00,6,3,10,0.00
2013-7-23,87.0,74.4,68.0,76.0,70.3,62.0,99,88,56,0.00,40.00,12,5,22,0.00
2013-7-24,74.0,65.8,56.0,60.0,56.2,54.0,97,72,53,0.00,40.00,12,5,20,0.00
2013-7-25,79.0,67.3,57.0,61.0,58.5,56.0,95,74,52,0.00,40.00,7,3,10,0.00
2013-7-26,81.0,70.9,60.0,66.0,61.1,58.0,98,73,47,0.00,40.00,8,3,14,0.00
2013-7-27,75.0,67.9,61.0,71.0,66.1,59.0,99,94,79,0.00,40.00,12,6,24,0.00
2013-7-28,68.0,61.3,54.0,62.0,55.7,52.0,99,83,63,0.00,40.00,12,6,24,0.00
2013-7-29,74.0,61.5,56.0,62.0,57.6,55.0,96,87,62,0.00,40.00,9,4,17,0.00
2013-7-30,82.0,66.9,56.0,68.0,61.4,56.0,99,84,47,0.00,40.00,7,2,10,0.00
2013-7-31,80.0,71.8,69.0,72.0,68.8,67.0,99,90,69,0.00,40.00,12,5,16,0.00
2013-8-1,81.0,72.0,65.0,71.0,65.2,58.0,100,81,50,0.00,40.00,9,4,17,0.00
2013-8-2,74.0,67.3,59.0,72.0,64.0,58.0,97,89,71,0.00,40.00,12,5,20,0.00
2013-8-3,81.0,73.1,65.0,69.0,60.8,54.0,99,69,41,0.00,40.00,10,4,16,0.00
2013-8-4,76.0,67.8,58.0,62.0,58.4,54.0,96,73,48,0.00,40.00,12,5,17,0.00
2013-8-5,75.0,67.5,60.0,64.0,59.9,56.0,92,77,51,0.00,40.00,7,3,12,0.00
2013-8-6,82.0,72.6,67.0,71.0,66.7,64.0,95,82,61,0.00,40.00,13,6,18,0.00
2013-8-7,83.0,75.0,69.0,78.0,72.8,69.0,98,93,74,0.00,40.00,9,4,19,0.00
2013-8-8,77.0,73.5,69.0,76.0,71.7,69.0,98,93,84,0.00,40.00,9,4,14,0.00
2013-8-9,82.0,73.5,66.0,70.0,63.4,56.0,93,72,43,0.00,40.00,9,4,14,0.00
2013-8-10,78.0,73.1,67.0,70.0,67.8,65.0,95,83,69,0.00,40.00,9,4,14,0.00
2013-8-11,84.0,72.7,61.0,67.0,61.7,56.0,100,72,40,0.00,40.00,9,2,14,0.00
2013-8-12,82.0,72.2,68.0,75.0,68.4,64.0,98,88,74,0.00,40.00,7,2,12,0.00
2013-8-13,71.0,64.0,59.0,69.0,55.8,-99.9,99,80,50,0.00,40.00,10,6,19,0.00
2013-8-14,74.0,61.8,51.0,57.0,51.6,49.0,95,71,44,0.00,40.00,8,4,13,0.00
2013-8-15,78.0,57.4,53.0,60.0,36.5,-99.9,98,68,40,0.00,40.00,6,2,11,0.00
2013-8-16,81.0,66.3,58.0,62.0,50.1,-99.9,94,66,36,0.00,40.00,8,2,12,0.00
2013-8-17,80.0,67.3,56.0,67.0,60.0,56.0,98,80,46,0.00,40.00,11,3,17,0.00
2013-8-18,83.0,70.4,61.0,71.0,59.7,-99.9,99,75,37,0.00,40.00,9,3,13,0.00
2013-8-19,86.0,68.5,61.0,68.0,48.3,-99.9,98,72,43,0.00,40.00,8,2,11,0.00
2013-8-20,88.0,74.3,65.0,71.0,64.1,-99.9,98,77,47,0.00,40.00,7,3,12,0.00
2013-8-21,88.0,78.8,69.0,75.0,71.4,67.0,94,79,54,0.00,40.00,11,5,15,0.00
2013-8-22,85.0,75.4,71.0,75.0,72.1,70.0,98,90,67,0.00,40.00,10,5,15,0.00
2013-8-23,85.0,74.3,65.0,70.0,62.7,54.0,99,71,37,0.00,40.00,9,4,14,0.00
2013-8-24,84.0,72.6,61.0,70.0,60.8,53.0,98,71,39,0.00,40.00,11,4,15,0.00
2013-8-25,88.0,73.8,61.0,69.0,61.4,-99.9,97,70,44,0.00,40.00,7,4,14,0.00
2013-8-26,90.0,79.1,68.0,76.0,70.8,66.0,94,76,59,0.00,40.00,12,6,19,0.00
2013-8-27,85.0,76.8,73.0,80.0,75.4,73.0,99,95,85,0.00,40.00,11,4,16,0.00
2013-8-28,85.0,81.1,75.0,81.0,78.3,74.0,97,91,84,0.00,40.00,7,4,13,0.00
2013-8-29,88.0,77.5,69.0,77.0,71.8,68.0,99,84,52,0.00,40.00,7,3,11,0.00
2013-8-30,89.0,78.6,68.0,77.0,72.0,68.0,98,81,54,0.00,40.00,10,4,17,0.00
2013-8-31,85.0,75.6,68.0,76.0,72.5,68.0,99,90,67,0.00,40.00,21,4,32,0.00
2013-9-1,82.0,75.1,73.0,76.0,70.4,-99.9,98,89,73,0.00,40.00,9,4,13,0.00
2013-9-2,81.0,72.8,63.0,73.0,66.2,56.0,99,81,47,0.00,40.00,12,4,21,0.00
2013-9-3,76.0,65.7,60.0,61.0,56.6,54.0,90,73,49,0.00,40.00,11,5,17,0.00
2013-9-4,84.0,69.3,57.0,63.0,58.2,54.0,98,72,36,0.00,40.00,12,4,17,0.00
2013-9-5,74.0,67.7,61.0,64.0,54.4,43.0,98,67,35,0.00,40.00,9,5,12,0.00
2013-9-6,78.0,66.4,53.0,59.0,53.1,46.0,98,67,33,0.00,40.00,7,3,11,0.00
2013-9-7,85.0,71.2,60.0,71.0,61.9,51.0,91,73,55,0.00,40.00,9,4,13,0.00
2013-9-8,76.0,69.9,65.0,70.0,64.1,-99.9,97,85,61,0.00,40.00,11,5,17,0.00
2013-9-9,85.0,69.6,62.0,76.0,66.1,53.0,99,89,68,0.00,40.00,6,2,9,0.00
2013-9-12,81.0,71.8,61.0,73.0,65.5,55.0,99,83,44,0.00,40.00,12,4,21,0.00
2013-9-13,64.0,57.0,50.0,54.0,49.4,44.0,91,76,53,0.00,40.00,11,6,17,0.00
2013-9-14,70.0,56.5,44.0,55.0,45.1,41.0,98,70,35,0.00,40.00,5,2,9,0.00
2013-9-15,70.0,57.0,52.0,59.0,50.0,-99.9,99,83,47,0.00,40.00,6,3,11,0.00
2013-9-16,65.0,58.7,54.0,58.0,53.6,47.0,100,84,52,0.00,40.00,9,4,15,0.00
2013-9-17,67.0,56.7,46.0,56.0,49.2,45.0,98,78,45,0.00,40.00,9,4,15,0.00
2013-9-18,65.0,56.8,55.0,58.0,55.4,54.0,98,95,91,0.00,40.00,4,1,6,0.00
2013-9-19,83.0,70.1,63.0,71.0,66.8,63.0,99,90,63,0.00,40.00,11,5,16,0.00
2013-9-20,86.0,74.7,70.0,75.0,71.4,69.0,99,90,62,0.00,40.00,12,7,21,0.00
2013-9-21,71.0,65.0,58.0,69.0,58.8,47.0,100,82,43,0.00,40.00,11,5,19,0.00
2013-9-22,63.0,55.3,53.0,52.0,43.5,-99.9,92,68,50,0.00,40.00,11,5,16,0.00
2013-9-23,64.0,55.9,49.0,52.0,47.8,44.0,96,76,50,0.00,40.00,9,4,12,0.00
2013-9-24,66.0,55.7,46.0,53.0,48.7,46.0,99,80,49,0.00,40.00,10,3,17,0.00
2013-9-25,71.0,59.4,50.0,61.0,55.6,50.0,99,88,57,0.00,40.00,10,3,16,0.00
2013-9-26,75.0,61.6,51.0,62.0,53.8,47.0,100,80,38,0.00,40.00,8,3,13,0.00
2013-9-27,75.0,62.9,53.0,65.0,57.8,53.0,100,85,52,0.00,40.00,11,4,16,0.00
2013-9-28,79.0,65.9,53.0,63.0,58.1,53.0,99,79,41,0.00,40.00,9,3,12,0.00
2013-9-29,66.0,62.2,61.0,65.0,58.3,-99.9,100,90,71,0.00,40.00,7,4,12,0.00
2013-9-30,72.0,63.2,57.0,62.0,58.8,56.0,100,87,58,0.00,40.00,6,3,12,0.00
2013-10-2,84.0,70.9,64.0,67.0,60.6,54.0,98,74,37,0.00,40.00,6,3,10,0.00
2013-10-3,80.0,70.5,64.0,73.0,66.7,60.0,97,88,75,0.00,40.00,7,3,12,0.00
2013-10-4,76.0,71.3,68.0,74.0,70.0,68.0,98,95,87,0.00,40.00,9,4,13,0.00
2013-10-5,74.0,69.4,67.0,73.0,69.3,66.0,100,99,96,0.00,40.00,8,3,15,0.00
2013-10-6,74.0,66.8,56.0,71.0,66.3,56.0,100,98,86,0.00,40.00,11,7,19,0.00
2013-10-7,61.0,53.4,46.0,56.0,48.2,44.0,98,83,59,0.00,40.00,11,6,24,0.00
2013-10-8,70.0,56.0,45.0,55.0,47.8,40.0,100,78,34,0.00,40.00,9,2,12,0.00
2013-10-9,70.0,59.6,48.0,55.0,49.9,44.0,98,74,40,0.00,40.00,11,4,17,0.00
2013-10-10,71.0,57.1,46.0,57.0,49.2,41.0,100,79,34,0.00,40.00,6,2,12,0.00
2013-10-11,72.0,58.7,47.0,64.0,55.3,46.0,100,90,39,0.00,40.00,6,2,12,0.00
2013-10-12,77.0,64.8,53.0,64.0,58.0,46.0,100,81,35,0.00,40.00,8,2,12,0.00
2013-10-13,72.0,62.9,54.0,63.0,46.7,-99.9,98,63,29,0.00,40.00,8,4,14,0.00
2013-10-14,66.0,56.2,47.0,55.0,48.7,45.0,97,77,48,0.00,40.00,11,4,15,0.00
2013-10-15,64.0,55.1,49.0,63.0,53.4,47.0,97,93,86,0.00,40.00,7,3,7,0.00
2013-10-20,62.0,50.4,42.0,47.0,39.0,-99.9,91,70,41,0.00,40.00,11,7,21,0.00
2013-10-21,61.0,53.0,43.0,53.0,47.6,40.0,99,82,67,0.00,40.00,13,-10,25,0.00
2013-10-22,51.0,42.3,34.0,39.0,33.8,29.0,92,73,49,0.00,40.00,10,6,17,0.00
2013-10-23,50.0,40.5,34.0,41.0,35.6,29.0,99,84,45,0.00,40.00,10,4,16,0.00
2013-10-24,47.0,39.3,34.0,38.0,34.5,30.0,99,84,55,0.00,40.00,9,5,18,0.00
2013-10-25,49.0,39.7,32.0,42.0,32.0,27.0,99,77,46,0.00,40.00,11,6,18,0.00
2013-10-26,51.0,44.1,40.0,40.0,33.0,28.0,86,64,57,0.00,40.00,17,9,30,0.00
2013-10-27,54.0,43.1,35.0,42.0,32.7,-99.9,96,72,43,0.00,40.00,9,3,17,0.00
2013-10-28,55.0,43.9,35.0,45.0,36.4,-99.9,96,81,63,0.00,40.00,9,4,14,0.00
2013-11-13,38.0,30.8,23.0,27.0,22.2,20.0,95,71,48,0.00,40.00,13,7,25,0.00
2013-11-14,52.0,40.4,31.0,27.0,24.9,22.0,79,55,32,0.00,40.00,16,10,29,0.00
2013-11-15,51.0,44.2,39.0,35.0,29.9,26.0,76,57,47,0.00,40.00,12,6,17,0.00
2013-11-16,59.0,48.2,38.0,56.0,44.2,-99.9,98,90,79,0.00,40.00,16,8,24,0.00
2013-11-17,67.0,59.7,50.0,63.0,57.3,45.0,99,91,70,0.00,40.00,24,14,46,0.00
2013-11-18,50.0,42.6,36.0,44.0,35.8,28.0,90,77,65,0.00,40.00,20,12,31,0.00
2013-11-19,44.0,37.5,34.0,29.0,27.0,25.0,79,66,47,0.00,40.00,7,4,15,0.00
2013-12-2,41.0,35.2,31.0,36.0,30.8,24.0,99,85,51,0.00,40.00,9,3,12,0.00
2013-12-3,42.0,38.3,35.0,41.0,37.0,32.0,99,94,86,0.00,40.00,7,4,12,0.00
2013-12-4,60.0,49.9,39.0,56.0,48.5,39.0,99,95,89,0.00,40.00,14,5,22,0.00
2013-12-5,61.0,44.8,33.0,59.0,39.5,25.0,96,81,69,0.00,40.00,14,9,24,0.00
2013-12-6,33.0,29.8,25.0,25.0,22.3,18.0,77,73,67,0.00,40.00,8,5,13,0.00
2013-12-7,29.0,23.1,19.0,18.0,12.0,-99.9,76,66,50,0.00,40.00,10,4,14,0.00
2013-12-8,30.0,23.9,18.0,29.0,20.6,12.0,99,87,75,0.00,40.00,11,7,20,0.00
2013-12-9,31.0,27.2,21.0,31.0,23.8,14.0,99,87,74,0.00,40.00,17,9,25,0.00
2013-12-10,26.0,20.2,13.0,13.0,10.4,4.0,81,65,46,0.00,40.00,15,9,29,0.00
2013-12-11,26.0,19.6,14.0,22.0,14.9,9.0,95,81,71,0.00,40.00,9,6,17,0.00
2013-12-12,18.0,13.7,9.0,11.0,6.9,2.0,91,74,58,0.00,40.00,12,6,20,0.00
2013-12-13,33.0,24.1,18.0,27.0,16.8,10.0,92,73,64,0.00,40.00,14,5,18,0.00
2013-12-14,28.0,23.6,21.0,27.0,22.0,-99.9,99,97,93,0.00,40.00,14,9,19,0.00
2013-12-17,26.0,22.5,18.0,25.0,22.1,18.0,99,97,93,0.00,40.00,14,6,20,0.00
2013-12-18,30.0,24.1,20.0,24.0,20.6,17.0,99,86,71,0.00,40.00,12,7,19,0.00
2013-12-19,44.0,37.4,30.0,39.0,31.3,21.0,92,78,67,0.00,40.00,9,4,16,0.00
2013-12-20,55.0,45.8,41.0,55.0,45.5,39.0,99,98,91,0.00,40.00,9,6,16,0.00
2013-12-21,55.0,39.6,34.0,55.0,37.7,-99.9,99,97,99,0.00,40.00,13,7,25,0.00
2013-12-22,41.0,37.2,34.0,41.0,36.7,34.0,99,97,92,0.00,40.00,16,8,31,0.00
2013-12-23,36.0,31.2,25.0,35.0,27.3,19.0,95,85,71,0.00,40.00,13,8,21,0.00
2013-12-24,23.0,17.3,12.0,16.0,11.6,9.0,88,78,60,0.00,40.00,12,7,19,0.00
2013-12-25,27.0,22.1,15.0,26.0,19.5,14.0,96,89,77,0.00,40.00,14,8,19,0.00
2013-12-26,30.0,27.9,27.0,29.0,24.0,20.0,99,85,72,0.00,40.00,13,7,21,0.00
2013-12-27,42.0,36.1,29.0,35.0,31.2,25.0,90,82,71,0.00,40.00,11,6,21,0.00
2013-12-28,49.0,41.1,38.0,39.0,33.3,-99.9,88,78,65,0.00,40.00,12,8,21,0.00
2013-12-29,46.0,39.4,28.0,36.0,33.3,25.0,93,78,69,0.00,40.00,10,7,17,0.00
2013-12-30,28.0,22.6,19.0,25.0,15.1,10.0,89,72,57,0.00,40.00,14,5,22,0.00